| time (UTC) | temp F | wind direction | speed knots | gust knots | rain 1hr in | rain 24hr in | rain mn in | humidity % | barometer mb |
| 20260901141057 | 83 | 163 | 0.0 | 4.3 | 0.00 | 0.01 | 0.00 | 78 | 1018.4 |
| 20260901140828 | 82 | 164 | 0.0 | 0.0 | 0.00 | 0.01 | 0.00 | 78 | 1018.5 |
| 20260901140056 | 82 | 164 | 0.0 | 0.0 | 0.00 | 0.01 | 0.00 | 79 | 1018.5 |
| 20260901135555 | 82 | 164 | 0.0 | 0.0 | 0.00 | 0.01 | 0.00 | 81 | 1018.5 |
| 20260901135055 | 81 | 164 | 0.0 | 0.0 | 0.00 | 0.01 | 0.00 | 81 | 1018.5 |
| 20260901134555 | 81 | 164 | 0.0 | 0.0 | 0.00 | 0.01 | 0.00 | 83 | 1018.3 |
| 20260901134053 | 80 | 164 | 0.0 | 0.0 | 0.00 | 0.01 | 0.00 | 84 | 1018.3 |
| 20260901133551 | 80 | 164 | 0.0 | 0.0 | 0.00 | 0.01 | 0.00 | 84 | 1018.3 |
| 20260901133321 | 80 | 164 | 0.0 | 0.0 | 0.00 | 0.01 | 0.00 | 85 | 1018.3 |
| 20260901132551 | 79 | 164 | 0.0 | 0.0 | 0.00 | 0.01 | 0.00 | 86 | 1018.3 |
| 20260901132049 | 78 | 164 | 0.0 | 0.0 | 0.00 | 0.01 | 0.00 | 88 | 1018.3 |
| 20260901131547 | 77 | 164 | 0.0 | 0.0 | 0.00 | 0.01 | 0.00 | 89 | 1018.3 |
| 20260901131046 | 76 | 164 | 0.0 | 0.0 | 0.00 | 0.01 | 0.00 | 90 | 1018.2 |
| 20260901130540 | 76 | 164 | 0.0 | 0.0 | 0.00 | 0.01 | 0.00 | 91 | 1018.1 |
| 20260901130033 | 75 | 164 | 0.0 | 0.0 | 0.00 | 0.01 | 0.00 | 91 | 1018.1 |
| 20260901125758 | 75 | 164 | 0.0 | 0.0 | 0.00 | 0.01 | 0.00 | 91 | 1017.9 |
| 20260901125021 | 75 | 164 | 0.0 | 0.0 | 0.00 | 0.01 | 0.00 | 91 | 1017.9 |
| 20260901124516 | 75 | 164 | 0.0 | 0.0 | 0.00 | 0.01 | 0.00 | 90 | 1017.9 |
| 20260901124010 | 75 | 164 | 0.0 | 0.0 | 0.00 | 0.01 | 0.00 | 90 | 1017.8 |
| 20260901123504 | 75 | 164 | 0.0 | 0.0 | 0.00 | 0.01 | 0.00 | 90 | 1017.9 |
| 20260901122958 | 75 | 164 | 0.0 | 0.0 | 0.00 | 0.01 | 0.00 | 90 | 1017.8 |
| 20260901122452 | 75 | 164 | 0.0 | 0.0 | 0.00 | 0.01 | 0.00 | 90 | 1017.8 |
| 20260901121946 | 75 | 164 | 0.0 | 0.0 | 0.00 | 0.01 | 0.00 | 90 | 1017.8 |
| 20260901121440 | 75 | 164 | 0.0 | 0.0 | 0.00 | 0.01 | 0.00 | 90 | 1017.8 |
| 20260901120934 | 75 | 164 | 0.0 | 0.0 | 0.00 | 0.01 | 0.00 | 90 | 1017.8 |
| 20260901115922 | 76 | 164 | 0.0 | 0.0 | 0.00 | 0.01 | 0.00 | 90 | 1017.7 |
| 20260901115416 | 76 | 164 | 0.0 | 0.0 | 0.00 | 0.01 | 0.00 | 90 | 1017.8 |
| 20260901114910 | 76 | 164 | 0.0 | 0.0 | 0.00 | 0.01 | 0.00 | 90 | 1017.8 |
| 20260901114634 | 76 | 164 | 0.0 | 0.0 | 0.00 | 0.01 | 0.00 | 90 | 1017.8 |
| 20260901114128 | 76 | 164 | 0.0 | 0.0 | 0.00 | 0.01 | 0.00 | 89 | 1017.8 |
| 20260901113352 | 76 | 164 | 0.0 | 0.0 | 0.00 | 0.01 | 0.00 | 89 | 1017.8 |
| 20260901113116 | 76 | 164 | 0.0 | 0.0 | 0.00 | 0.01 | 0.00 | 89 | 1017.8 |
| 20260901112340 | 76 | 164 | 0.0 | 0.0 | 0.00 | 0.01 | 0.00 | 88 | 1017.8 |
| 20260901112105 | 76 | 164 | 0.0 | 0.0 | 0.00 | 0.01 | 0.00 | 89 | 1017.6 |
| 20260901111327 | 76 | 164 | 0.0 | 0.0 | 0.00 | 0.01 | 0.00 | 89 | 1017.6 |
| 20260901110821 | 77 | 164 | 0.0 | 0.0 | 0.00 | 0.01 | 0.00 | 88 | 1017.6 |
| 20260901110316 | 77 | 164 | 0.0 | 0.0 | 0.00 | 0.01 | 0.00 | 88 | 1017.6 |
| 20260901110040 | 77 | 164 | 0.0 | 0.0 | 0.00 | 0.01 | 0.00 | 88 | 1017.6 |
| 20260901105305 | 77 | 164 | 0.0 | 0.0 | 0.00 | 0.01 | 0.00 | 88 | 1017.6 |
| 20260901105028 | 77 | 164 | 0.0 | 0.0 | 0.00 | 0.01 | 0.00 | 88 | 1017.6 |
| 20260901104252 | 77 | 164 | 0.0 | 0.0 | 0.00 | 0.01 | 0.00 | 88 | 1017.6 |
| 20260901103746 | 77 | 164 | 0.0 | 1.7 | 0.00 | 0.01 | 0.00 | 88 | 1017.6 |
| 20260901103240 | 77 | 164 | 0.0 | 1.7 | 0.00 | 0.01 | 0.00 | 88 | 1017.7 |
| 20260901102734 | 77 | 164 | 0.0 | 3.5 | 0.00 | 0.01 | 0.00 | 87 | 1017.7 |
| 20260901102228 | 78 | 164 | 0.0 | 3.5 | 0.00 | 0.01 | 0.00 | 87 | 1017.7 |
| 20260901101722 | 78 | 163 | 0.0 | 1.7 | 0.00 | 0.01 | 0.00 | 87 | 1017.7 |
| 20260901101216 | 78 | 163 | 0.0 | 0.9 | 0.00 | 0.01 | 0.00 | 87 | 1017.7 |
| 20260901100214 | 78 | 163 | 0.0 | 4.3 | 0.00 | 0.01 | 0.00 | 87 | 1017.8 |
| 20260901095714 | 78 | 162 | 0.0 | 1.7 | 0.00 | 0.01 | 0.00 | 87 | 1017.7 |
| 20260901095214 | 78 | 162 | 0.0 | 3.5 | 0.00 | 0.01 | 0.00 | 86 | 1017.8 |
| 20260901094714 | 78 | 161 | 0.0 | 3.5 | 0.00 | 0.01 | 0.00 | 86 | 1017.7 |
| 20260901094214 | 78 | 161 | 0.0 | 3.5 | 0.00 | 0.01 | 0.00 | 86 | 1017.6 |
| 20260901093714 | 78 | 161 | 0.9 | 3.5 | 0.00 | 0.01 | 0.00 | 86 | 1017.6 |
| 20260901093213 | 78 | 161 | 0.9 | 3.5 | 0.00 | 0.01 | 0.00 | 86 | 1017.7 |
| 20260901092714 | 78 | 161 | 0.9 | 4.3 | 0.00 | 0.01 | 0.00 | 86 | 1017.8 |
| 20260901092214 | 78 | 161 | 0.0 | 4.3 | 0.00 | 0.01 | 0.00 | 86 | 1017.8 |
| 20260901091714 | 78 | 160 | 0.9 | 4.3 | 0.00 | 0.01 | 0.00 | 86 | 1017.8 |
| 20260901091444 | 78 | 160 | 0.9 | 4.3 | 0.00 | 0.01 | 0.00 | 86 | 1017.8 |
| 20260901090714 | 78 | 159 | 0.0 | 1.7 | 0.00 | 0.01 | 0.00 | 85 | 1017.9 |
| 20260901090214 | 78 | 159 | 0.0 | 1.7 | 0.00 | 0.01 | 0.00 | 85 | 1017.9 |
| 20260901085710 | 78 | 159 | 0.0 | 1.7 | 0.00 | 0.01 | 0.00 | 85 | 1017.9 |
| 20260901085210 | 78 | 159 | 0.0 | 1.7 | 0.00 | 0.01 | 0.00 | 85 | 1017.9 |
| 20260901084710 | 78 | 159 | 0.0 | 1.7 | 0.00 | 0.01 | 0.00 | 85 | 1017.9 |
| 20260901084441 | 78 | 159 | 0.9 | 3.5 | 0.00 | 0.01 | 0.00 | 85 | 1017.9 |
| 20260901083710 | 78 | 159 | 0.0 | 4.3 | 0.00 | 0.01 | 0.00 | 85 | 1017.8 |
| 20260901083210 | 78 | 159 | 0.0 | 4.3 | 0.00 | 0.01 | 0.00 | 84 | 1017.9 |
| 20260901082940 | 78 | 159 | 0.0 | 3.5 | 0.00 | 0.01 | 0.00 | 84 | 1017.9 |
| 20260901082210 | 78 | 159 | 0.0 | 3.5 | 0.00 | 0.01 | 0.00 | 84 | 1017.8 |
| 20260901081710 | 78 | 159 | 0.9 | 3.5 | 0.00 | 0.01 | 0.00 | 83 | 1017.9 |
| 20260901081210 | 78 | 158 | 0.9 | 4.3 | 0.00 | 0.01 | 0.00 | 83 | 1017.8 |
| 20260901080710 | 79 | 158 | 0.9 | 4.3 | 0.00 | 0.01 | 0.00 | 83 | 1017.8 |
| 20260901080210 | 79 | 158 | 0.9 | 5.2 | 0.00 | 0.01 | 0.00 | 83 | 1017.7 |
| 20260901075707 | 79 | 158 | 1.7 | 5.2 | 0.00 | 0.01 | 0.00 | 83 | 1017.7 |
| 20260901075207 | 79 | 159 | 1.7 | 5.2 | 0.00 | 0.01 | 0.00 | 82 | 1017.7 |
| 20260901074707 | 79 | 157 | 1.7 | 6.1 | 0.00 | 0.01 | 0.00 | 82 | 1017.8 |
| 20260901074206 | 79 | 157 | 1.7 | 6.1 | 0.00 | 0.01 | 0.00 | 82 | 1017.7 |
| 20260901073936 | 79 | 155 | 0.9 | 5.2 | 0.00 | 0.01 | 0.00 | 81 | 1017.7 |
| 20260901073206 | 79 | 167 | 0.9 | 5.2 | 0.00 | 0.01 | 0.00 | 81 | 1017.8 |
| 20260901072704 | 79 | 171 | 0.9 | 5.2 | 0.00 | 0.01 | 0.00 | 80 | 1017.8 |
| 20260901072204 | 79 | 180 | 1.7 | 4.3 | 0.00 | 0.01 | 0.00 | 80 | 1017.8 |
| 20260901071935 | 80 | 216 | 1.7 | 4.3 | 0.00 | 0.01 | 0.00 | 79 | 1017.9 |
| 20260901071203 | 80 | 167 | 0.9 | 4.3 | 0.00 | 0.01 | 0.00 | 79 | 1018.1 |
| 20260901070149 | 80 | 167 | 1.7 | 5.2 | 0.00 | 0.01 | 0.00 | 78 | 1018.1 |
| 20260901065643 | 80 | 167 | 1.7 | 5.2 | 0.00 | 0.01 | 0.00 | 78 | 1017.9 |
| 20260901065137 | 80 | 166 | 1.7 | 6.1 | 0.00 | 0.01 | 0.00 | 78 | 1017.8 |
| 20260901064631 | 80 | 165 | 1.7 | 6.1 | 0.00 | 0.01 | 0.00 | 77 | 1017.7 |
| 20260901064355 | 80 | 200 | 1.7 | 7.0 | 0.00 | 0.01 | 0.00 | 77 | 1017.7 |
| 20260901063619 | 80 | 171 | 1.7 | 7.0 | 0.00 | 0.01 | 0.00 | 77 | 1017.7 |
| 20260901063113 | 80 | 207 | 0.9 | 6.1 | 0.00 | 0.01 | 0.00 | 76 | 1017.7 |
| 20260901062606 | 81 | 164 | 1.7 | 4.3 | 0.00 | 0.01 | 0.00 | 76 | 1017.7 |
| 20260901062101 | 81 | 164 | 1.7 | 6.1 | 0.00 | 0.01 | 0.00 | 76 | 1017.7 |
| 20260901061554 | 81 | 164 | 1.7 | 6.1 | 0.00 | 0.01 | 0.00 | 75 | 1017.6 |
| 20260901061053 | 81 | 163 | 0.9 | 5.2 | 0.00 | 0.01 | 0.00 | 75 | 1017.6 |
| 20260901060554 | 81 | 158 | 1.7 | 5.2 | 0.00 | 0.01 | 0.00 | 74 | 1017.6 |
| 20260901060054 | 81 | 164 | 1.7 | 5.2 | 0.00 | 0.01 | 0.00 | 74 | 1017.5 |
| 20260901055552 | 81 | 168 | 1.7 | 5.2 | 0.00 | 0.01 | 0.00 | 73 | 1017.5 |
| 20260901055049 | 81 | 169 | 1.7 | 7.0 | 0.00 | 0.01 | 0.00 | 73 | 1017.3 |
| 20260901054549 | 81 | 148 | 0.9 | 7.0 | 0.00 | 0.01 | 0.00 | 72 | 1017.4 |
| 20260901054049 | 82 | 146 | 0.9 | 4.3 | 0.00 | 0.01 | 0.00 | 72 | 1017.4 |
| 20260901053547 | 82 | 145 | 0.9 | 6.1 | 0.00 | 0.01 | 0.00 | 72 | 1017.4 |
| 20260901053045 | 82 | 145 | 1.7 | 6.1 | 0.00 | 0.01 | 0.00 | 71 | 1017.3 |
| 20260901052543 | 82 | 145 | 1.7 | 6.1 | 0.00 | 0.01 | 0.00 | 71 | 1017.3 |
| 20260901052042 | 82 | 157 | 2.6 | 6.1 | 0.00 | 0.01 | 0.00 | 71 | 1017.2 |
| 20260901051539 | 82 | 148 | 1.7 | 6.1 | 0.00 | 0.01 | 0.00 | 71 | 1017.2 |
| 20260901051037 | 82 | 162 | 1.7 | 7.0 | 0.00 | 0.01 | 0.00 | 71 | 1017.3 |
| 20260901050810 | 82 | 150 | 1.7 | 7.0 | 0.00 | 0.01 | 0.00 | 70 | 1017.2 |
| 20260901050037 | 82 | 161 | 1.7 | 5.2 | 0.00 | 0.01 | 0.00 | 70 | 1017.3 |
| 20260901045536 | 83 | 158 | 1.7 | 7.8 | 0.00 | 0.01 | 0.01 | 70 | 1017.2 |
| 20260901045036 | 83 | 158 | 0.9 | 7.8 | 0.00 | 0.01 | 0.01 | 69 | 1017.3 |
| 20260901044533 | 83 | 134 | 0.9 | 3.5 | 0.00 | 0.01 | 0.01 | 69 | 1017.2 |
| 20260901044032 | 83 | 134 | 0.9 | 3.5 | 0.00 | 0.01 | 0.01 | 69 | 1017.1 |
| 20260901043532 | 83 | 134 | 0.9 | 6.1 | 0.00 | 0.01 | 0.01 | 69 | 1017.0 |
| 20260901043033 | 83 | 154 | 0.9 | 6.1 | 0.00 | 0.01 | 0.01 | 69 | 1017.1 |
| 20260901042533 | 83 | 188 | 0.9 | 2.6 | 0.00 | 0.01 | 0.01 | 69 | 1017.0 |
| 20260901042033 | 83 | 188 | 0.0 | 2.6 | 0.00 | 0.01 | 0.01 | 69 | 1017.0 |
| 20260901041533 | 83 | 189 | 0.9 | 4.3 | 0.00 | 0.01 | 0.01 | 69 | 1016.9 |
| 20260901040804 | 84 | 195 | 1.7 | 6.1 | 0.00 | 0.01 | 0.01 | 69 | 1016.7 |
| 20260901040026 | 83 | 169 | 0.9 | 5.2 | 0.00 | 0.01 | 0.01 | 69 | 1016.8 |
| 20260901035520 | 83 | 177 | 1.7 | 6.1 | 0.00 | 0.01 | 0.01 | 69 | 1016.7 |
| 20260901035014 | 83 | 155 | 1.7 | 7.8 | 0.00 | 0.01 | 0.01 | 70 | 1016.7 |
| 20260901034508 | 83 | 161 | 1.7 | 7.8 | 0.00 | 0.01 | 0.01 | 70 | 1016.6 |
| 20260901034005 | 83 | 164 | 0.9 | 6.1 | 0.00 | 0.01 | 0.01 | 71 | 1016.6 |
| 20260901033735 | 83 | 132 | 0.9 | 6.1 | 0.00 | 0.01 | 0.01 | 71 | 1016.6 |
| 20260901033236 | 83 | 120 | 0.9 | 6.1 | 0.00 | 0.01 | 0.01 | 71 | 1016.6 |
| 20260901032505 | 83 | 182 | 0.9 | 4.3 | 0.01 | 0.01 | 0.01 | 72 | 1016.6 |
| 20260901032003 | 83 | 182 | 0.9 | 5.2 | 0.01 | 0.01 | 0.01 | 72 | 1016.6 |
| 20260901031504 | 83 | 189 | 1.7 | 7.8 | 0.01 | 0.01 | 0.01 | 72 | 1016.5 |
| 20260901031004 | 82 | 196 | 1.7 | 7.8 | 0.01 | 0.01 | 0.01 | 73 | 1016.5 |
| 20260901030733 | 82 | 192 | 1.7 | 5.2 | 0.01 | 0.01 | 0.01 | 74 | 1016.4 |
| 20260901030004 | 82 | 150 | 0.9 | 5.2 | 0.01 | 0.01 | 0.01 | 75 | 1016.3 |
| 20260901025500 | 81 | 117 | 0.9 | 5.2 | 0.01 | 0.01 | 0.01 | 76 | 1016.4 |
| 20260901024456 | 82 | 144 | 0.9 | 4.3 | 0.01 | 0.01 | 0.01 | 76 | 1016.1 |
| 20260901023956 | 83 | 171 | 0.9 | 4.3 | 0.01 | 0.01 | 0.01 | 75 | 1016.0 |
| 20260901023456 | 84 | 175 | 0.9 | 3.5 | 0.01 | 0.01 | 0.01 | 74 | 1015.9 |
| 20260901022959 | 85 | 176 | 2.6 | 8.7 | 0.01 | 0.01 | 0.01 | 70 | 1015.8 |
| 20260901022456 | 88 | 165 | 3.5 | 8.7 | 0.00 | 0.00 | 0.00 | 66 | 1015.7 |
| 20260901021956 | 89 | 195 | 1.7 | 8.7 | 0.00 | 0.00 | 0.00 | 58 | 1015.7 |
| 20260901021728 | 89 | 104 | 1.7 | 6.1 | 0.00 | 0.00 | 0.00 | 56 | 1015.5 |
| 20260901020950 | 89 | 96 | 1.7 | 6.1 | 0.00 | 0.00 | 0.00 | 56 | 1015.4 |
| 20260901020444 | 89 | 92 | 1.7 | 7.0 | 0.00 | 0.00 | 0.00 | 55 | 1015.3 |
| 20260901015938 | 89 | 110 | 1.7 | 8.7 | 0.00 | 0.00 | 0.00 | 54 | 1015.2 |
| 20260901015432 | 89 | 93 | 0.9 | 8.7 | 0.00 | 0.00 | 0.00 | 53 | 1015.0 |
| 20260901014926 | 89 | 65 | 0.0 | 0.0 | 0.00 | 0.00 | 0.00 | 52 | 1015.0 |
| 20260901014420 | 89 | 65 | 0.0 | 0.0 | 0.00 | 0.00 | 0.00 | 52 | 1014.9 |
| 20260901013914 | 89 | 65 | 0.0 | 0.0 | 0.00 | 0.00 | 0.00 | 52 | 1014.9 |
| 20260901013408 | 90 | 65 | 0.0 | 1.7 | 0.00 | 0.00 | 0.00 | 51 | 1014.9 |
| 20260901012902 | 90 | 65 | 0.0 | 2.6 | 0.00 | 0.00 | 0.00 | 51 | 1014.8 |
| 20260901012356 | 90 | 65 | 0.0 | 2.6 | 0.00 | 0.00 | 0.00 | 51 | 1014.7 |
| 20260901011850 | 90 | 65 | 0.0 | 2.6 | 0.00 | 0.00 | 0.00 | 51 | 1014.7 |
| 20260901011343 | 90 | 65 | 0.0 | 0.9 | 0.00 | 0.00 | 0.00 | 51 | 1014.6 |
| 20260901010838 | 91 | 65 | 0.0 | 0.9 | 0.00 | 0.00 | 0.00 | 51 | 1014.6 |
| 20260901010332 | 91 | 65 | 0.0 | 1.7 | 0.00 | 0.00 | 0.00 | 51 | 1014.6 |
| 20260901005826 | 91 | 65 | 0.0 | 1.7 | 0.00 | 0.00 | 0.00 | 50 | 1014.5 |
| 20260901005321 | 92 | 65 | 0.0 | 1.7 | 0.00 | 0.00 | 0.00 | 50 | 1014.4 |
| 20260901004814 | 92 | 65 | 0.0 | 1.7 | 0.00 | 0.00 | 0.00 | 50 | 1014.4 |
| 20260901004307 | 92 | 65 | 0.0 | 2.6 | 0.00 | 0.00 | 0.00 | 50 | 1014.5 |
| 20260901003802 | 92 | 65 | 0.9 | 2.6 | 0.00 | 0.00 | 0.00 | 49 | 1014.5 |
| 20260901003255 | 92 | 64 | 0.9 | 2.6 | 0.00 | 0.00 | 0.00 | 49 | 1014.5 |
| 20260901002750 | 92 | 64 | 0.9 | 2.6 | 0.00 | 0.00 | 0.00 | 49 | 1014.4 |
| 20260901002244 | 92 | 64 | 0.9 | 2.6 | 0.00 | 0.00 | 0.00 | 49 | 1014.4 |
| 20260901001738 | 93 | 63 | 1.7 | 5.2 | 0.00 | 0.00 | 0.00 | 48 | 1014.3 |
| 20260901001232 | 93 | 63 | 1.7 | 5.2 | 0.00 | 0.00 | 0.00 | 48 | 1014.4 |
| 20260901000959 | 93 | 99 | 1.7 | 5.2 | 0.00 | 0.00 | 0.00 | 47 | 1014.4 |
| 20260901000229 | 93 | 86 | 1.7 | 6.1 | 0.00 | 0.00 | 0.00 | 48 | 1014.3 |
| 20260831235959 | 94 | 114 | 1.7 | 6.1 | 0.00 | 0.00 | 0.00 | 48 | 1014.4 |
| 20260831235226 | 94 | 80 | 1.7 | 7.0 | 0.00 | 0.00 | 0.00 | 47 | 1014.3 |
| 20260831234726 | 94 | 129 | 2.6 | 10.4 | 0.00 | 0.00 | 0.00 | 47 | 1014.3 |
| 20260831234226 | 94 | 94 | 2.6 | 10.4 | 0.00 | 0.00 | 0.00 | 47 | 1014.2 |
| 20260831233729 | 95 | 68 | 1.7 | 7.0 | 0.00 | 0.00 | 0.00 | 47 | 1014.2 |
| 20260831233226 | 95 | 105 | 1.7 | 7.8 | 0.00 | 0.00 | 0.00 | 47 | 1014.2 |
| 20260831232226 | 95 | 114 | 1.7 | 7.0 | 0.00 | 0.00 | 0.00 | 46 | 1014.1 |
| 20260831231726 | 95 | 108 | 1.7 | 6.1 | 0.00 | 0.00 | 0.00 | 46 | 1014.1 |
| 20260831231226 | 95 | 166 | 2.6 | 7.0 | 0.00 | 0.00 | 0.00 | 45 | 1014.1 |
| 20260831230724 | 96 | 93 | 1.7 | 7.0 | 0.00 | 0.00 | 0.00 | 45 | 1014.2 |
| 20260831230224 | 96 | 145 | 1.7 | 6.1 | 0.00 | 0.00 | 0.00 | 45 | 1014.3 |
| 20260831225724 | 96 | 159 | 1.7 | 6.1 | 0.00 | 0.00 | 0.00 | 45 | 1014.4 |
| 20260831225222 | 96 | 163 | 2.6 | 6.1 | 0.00 | 0.00 | 0.00 | 45 | 1014.3 |
| 20260831224722 | 96 | 146 | 1.7 | 5.2 | 0.00 | 0.00 | 0.00 | 45 | 1014.4 |
| 20260831224217 | 96 | 119 | 0.9 | 4.3 | 0.00 | 0.00 | 0.00 | 45 | 1014.3 |
| 20260831223717 | 96 | 132 | 0.9 | 3.5 | 0.00 | 0.00 | 0.00 | 45 | 1014.4 |
| 20260831223218 | 95 | 132 | 0.9 | 3.5 | 0.00 | 0.00 | 0.00 | 45 | 1014.5 |
| 20260831222718 | 95 | 133 | 0.9 | 7.0 | 0.00 | 0.00 | 0.00 | 47 | 1014.5 |
| 20260831222218 | 95 | 132 | 1.7 | 7.0 | 0.00 | 0.00 | 0.00 | 46 | 1014.5 |
| 20260831221718 | 96 | 132 | 1.7 | 7.0 | 0.00 | 0.00 | 0.00 | 45 | 1014.5 |
| 20260831221218 | 96 | 113 | 1.7 | 7.0 | 0.00 | 0.00 | 0.00 | 45 | 1014.5 |
| 20260831220717 | 96 | 78 | 1.7 | 7.0 | 0.00 | 0.00 | 0.00 | 45 | 1014.5 |
| 20260831220217 | 96 | 133 | 2.6 | 8.7 | 0.00 | 0.00 | 0.00 | 45 | 1014.7 |
| 20260831215718 | 96 | 161 | 2.6 | 8.7 | 0.00 | 0.00 | 0.00 | 43 | 1014.9 |
| 20260831215215 | 97 | 115 | 1.7 | 6.1 | 0.00 | 0.00 | 0.00 | 44 | 1014.8 |
| 20260831214716 | 97 | 109 | 1.7 | 7.0 | 0.00 | 0.00 | 0.00 | 44 | 1015.0 |
| 20260831214216 | 96 | 182 | 2.6 | 7.0 | 0.00 | 0.00 | 0.00 | 44 | 1015.0 |
| 20260831213946 | 96 | 173 | 2.6 | 7.0 | 0.00 | 0.00 | 0.00 | 43 | 1015.2 |
| 20260831213446 | 96 | 150 | 1.7 | 6.1 | 0.00 | 0.00 | 0.00 | 43 | 1015.2 |
| 20260831212716 | 96 | 167 | 1.7 | 9.6 | 0.00 | 0.00 | 0.00 | 44 | 1015.3 |
| 20260831212447 | 95 | 201 | 1.7 | 9.6 | 0.00 | 0.00 | 0.00 | 46 | 1015.3 |
| 20260831211716 | 95 | 92 | 1.7 | 7.8 | 0.00 | 0.00 | 0.00 | 46 | 1015.4 |
| 20260831211217 | 95 | 115 | 1.7 | 7.8 | 0.00 | 0.00 | 0.00 | 46 | 1015.5 |
| 20260831210711 | 94 | 210 | 1.7 | 5.2 | 0.00 | 0.00 | 0.00 | 46 | 1015.5 |
| 20260831210205 | 94 | 69 | 1.7 | 6.1 | 0.00 | 0.00 | 0.00 | 48 | 1015.6 |
| 20260831205931 | 94 | 136 | 1.7 | 6.1 | 0.00 | 0.00 | 0.00 | 47 | 1015.7 |
| 20260831205426 | 95 | 90 | 2.6 | 9.6 | 0.00 | 0.00 | 0.00 | 48 | 1015.8 |
| 20260831204647 | 95 | 51 | 2.6 | 9.6 | 0.00 | 0.00 | 0.00 | 48 | 1015.9 |
| 20260831204413 | 95 | 146 | 1.7 | 7.0 | 0.00 | 0.00 | 0.00 | 47 | 1015.9 |
| 20260831203635 | 95 | 142 | 2.6 | 7.8 | 0.00 | 0.00 | 0.00 | 48 | 1016.2 |
| 20260831203129 | 95 | 158 | 2.6 | 10.4 | 0.00 | 0.00 | 0.00 | 48 | 1016.2 |
| 20260831202623 | 96 | 145 | 2.6 | 8.7 | 0.00 | 0.00 | 0.00 | 48 | 1016.3 |
| 20260831202118 | 95 | 173 | 2.6 | 10.4 | 0.00 | 0.00 | 0.00 | 48 | 1016.3 |
| 20260831201612 | 95 | 98 | 1.7 | 10.4 | 0.00 | 0.00 | 0.00 | 48 | 1016.4 |
| 20260831201105 | 95 | 88 | 1.7 | 8.7 | 0.00 | 0.00 | 0.00 | 49 | 1016.4 |
| 20260831200600 | 95 | 104 | 1.7 | 7.8 | 0.00 | 0.00 | 0.00 | 48 | 1016.5 |
| 20260831200054 | 94 | 155 | 1.7 | 7.8 | 0.00 | 0.00 | 0.00 | 48 | 1016.7 |
| 20260831195548 | 94 | 94 | 1.7 | 7.0 | 0.00 | 0.00 | 0.00 | 49 | 1016.8 |
| 20260831195312 | 94 | 86 | 2.6 | 7.0 | 0.00 | 0.00 | 0.00 | 51 | 1016.9 |
| 20260831194535 | 94 | 162 | 2.6 | 9.6 | 0.00 | 0.00 | 0.00 | 51 | 1016.9 |
| 20260831194029 | 94 | 94 | 2.6 | 9.6 | 0.00 | 0.00 | 0.00 | 50 | 1017.0 |
| 20260831193523 | 94 | 181 | 1.7 | 7.0 | 0.00 | 0.00 | 0.00 | 51 | 1017.0 |
| 20260831193249 | 94 | 119 | 1.7 | 7.8 | 0.00 | 0.00 | 0.00 | 52 | 1017.1 |
| 20260831192512 | 94 | 157 | 1.7 | 8.7 | 0.00 | 0.00 | 0.00 | 51 | 1017.1 |
| 20260831192236 | 94 | 99 | 2.6 | 8.7 | 0.00 | 0.00 | 0.00 | 52 | 1017.3 |
| 20260831191459 | 94 | 157 | 1.7 | 6.1 | 0.00 | 0.00 | 0.00 | 52 | 1017.3 |
| 20260831190954 | 95 | 49 | 1.7 | 6.1 | 0.00 | 0.00 | 0.00 | 51 | 1017.3 |
| 20260831190448 | 94 | 171 | 1.7 | 5.2 | 0.00 | 0.00 | 0.00 | 50 | 1017.3 |
| 20260831185941 | 94 | 248 | 1.7 | 5.2 | 0.00 | 0.00 | 0.00 | 52 | 1017.4 |
| 20260831185707 | 94 | 194 | 1.7 | 6.1 | 0.00 | 0.00 | 0.00 | 52 | 1017.5 |
| 20260831184929 | 93 | 127 | 0.9 | 6.1 | 0.00 | 0.00 | 0.00 | 54 | 1017.6 |
| 20260831184423 | 93 | 153 | 1.7 | 7.8 | 0.00 | 0.00 | 0.00 | 53 | 1017.6 |
| 20260831183917 | 92 | 255 | 2.6 | 9.6 | 0.00 | 0.00 | 0.00 | 55 | 1017.7 |
| 20260831183411 | 93 | 158 | 1.7 | 9.6 | 0.00 | 0.00 | 0.00 | 54 | 1017.8 |
| 20260831183138 | 92 | 173 | 1.7 | 7.8 | 0.00 | 0.00 | 0.00 | 53 | 1017.8 |
| 20260831182400 | 92 | 209 | 1.7 | 7.8 | 0.00 | 0.00 | 0.00 | 54 | 1017.9 |
| 20260831182124 | 91 | 173 | 1.7 | 4.3 | 0.00 | 0.00 | 0.00 | 57 | 1017.9 |
| 20260831181348 | 91 | 88 | 1.7 | 7.0 | 0.00 | 0.00 | 0.00 | 58 | 1017.9 |
| 20260831180842 | 91 | 150 | 1.7 | 7.0 | 0.00 | 0.00 | 0.00 | 59 | 1018.1 |
| 20260831180611 | 91 | 131 | 1.7 | 7.0 | 0.00 | 0.00 | 0.00 | 58 | 1018.2 |
| 20260831175830 | 91 | 171 | 1.7 | 7.8 | 0.00 | 0.00 | 0.00 | 58 | 1018.1 |
| 20260831175324 | 91 | 203 | 2.6 | 10.4 | 0.00 | 0.00 | 0.00 | 59 | 1018.2 |
| 20260831174817 | 91 | 186 | 2.6 | 10.4 | 0.00 | 0.00 | 0.00 | 58 | 1018.4 |
| 20260831174311 | 90 | 88 | 2.6 | 7.0 | 0.00 | 0.00 | 0.00 | 61 | 1018.3 |
| 20260831173805 | 90 | 128 | 2.6 | 7.0 | 0.00 | 0.00 | 0.00 | 62 | 1018.3 |
| 20260831172753 | 90 | 213 | 1.7 | 6.1 | 0.00 | 0.00 | 0.00 | 64 | 1018.4 |
| 20260831171741 | 89 | 187 | 1.7 | 6.1 | 0.00 | 0.00 | 0.00 | 64 | 1018.4 |
| 20260831171235 | 89 | 76 | 1.7 | 6.1 | 0.00 | 0.00 | 0.00 | 64 | 1018.4 |
| 20260831171000 | 89 | 186 | 1.7 | 6.1 | 0.00 | 0.00 | 0.00 | 64 | 1018.4 |
| 20260831165717 | 89 | 241 | 1.7 | 6.1 | 0.00 | 0.00 | 0.00 | 65 | 1018.6 |
| 20260831165212 | 89 | 159 | 1.7 | 7.0 | 0.00 | 0.00 | 0.00 | 64 | 1018.6 |
| 20260831164706 | 89 | 165 | 1.7 | 7.0 | 0.00 | 0.00 | 0.00 | 65 | 1018.6 |
| 20260831164159 | 88 | 122 | 1.7 | 7.8 | 0.00 | 0.00 | 0.00 | 65 | 1018.6 |
| 20260831163924 | 88 | 155 | 2.6 | 8.7 | 0.00 | 0.00 | 0.00 | 66 | 1018.5 |
| 20260831163147 | 88 | 166 | 2.6 | 8.7 | 0.00 | 0.00 | 0.00 | 67 | 1018.6 |
| 20260831162641 | 88 | 82 | 1.7 | 7.0 | 0.00 | 0.00 | 0.00 | 68 | 1018.6 |
| 20260831162136 | 88 | 269 | 1.7 | 7.0 | 0.00 | 0.00 | 0.00 | 67 | 1018.7 |
| 20260831161629 | 87 | 113 | 1.7 | 6.1 | 0.00 | 0.00 | 0.00 | 69 | 1018.6 |
| 20260831161124 | 87 | 98 | 1.7 | 7.0 | 0.00 | 0.00 | 0.00 | 68 | 1018.6 |
| 20260831160618 | 87 | 157 | 1.7 | 7.0 | 0.00 | 0.00 | 0.00 | 69 | 1018.5 |
| 20260831160117 | 87 | 55 | 1.7 | 6.1 | 0.00 | 0.00 | 0.00 | 69 | 1018.5 |
| 20260831155849 | 87 | 188 | 1.7 | 6.1 | 0.00 | 0.00 | 0.00 | 70 | 1018.5 |
| 20260831155117 | 87 | 175 | 0.9 | 6.1 | 0.00 | 0.00 | 0.00 | 70 | 1018.5 |
| 20260831154849 | 86 | 164 | 0.9 | 6.1 | 0.00 | 0.00 | 0.00 | 72 | 1018.6 |
| 20260831154117 | 86 | 153 | 1.7 | 6.1 | 0.00 | 0.00 | 0.00 | 72 | 1018.5 |
| 20260831153847 | 86 | 163 | 2.6 | 7.8 | 0.00 | 0.00 | 0.00 | 71 | 1018.6 |
| 20260831153117 | 86 | 178 | 1.7 | 7.8 | 0.00 | 0.00 | 0.00 | 72 | 1018.4 |
| 20260831152848 | 86 | 129 | 0.9 | 5.2 | 0.00 | 0.00 | 0.00 | 73 | 1018.4 |
| 20260831152117 | 86 | 193 | 0.9 | 4.3 | 0.00 | 0.00 | 0.00 | 73 | 1018.4 |
| 20260831151617 | 85 | 144 | 0.9 | 6.1 | 0.00 | 0.00 | 0.00 | 74 | 1018.3 |
| 20260831151115 | 85 | 94 | 1.7 | 7.0 | 0.00 | 0.00 | 0.00 | 74 | 1018.4 |
| 20260831150845 | 85 | 155 | 1.7 | 7.0 | 0.00 | 0.00 | 0.00 | 74 | 1018.4 |
| 20260831150111 | 85 | 192 | 1.7 | 6.1 | 0.00 | 0.00 | 0.00 | 74 | 1018.3 |
| 20260831145611 | 84 | 159 | 0.9 | 5.2 | 0.00 | 0.00 | 0.00 | 76 | 1018.3 |
| 20260831145111 | 83 | 247 | 1.7 | 5.2 | 0.00 | 0.00 | 0.00 | 77 | 1018.3 |
| 20260831144610 | 83 | 221 | 1.7 | 6.1 | 0.00 | 0.00 | 0.00 | 78 | 1018.3 |
| 20260831144111 | 82 | 163 | 1.7 | 6.1 | 0.00 | 0.00 | 0.00 | 79 | 1018.4 |
| 20260831143610 | 82 | 169 | 1.7 | 5.2 | 0.00 | 0.00 | 0.00 | 80 | 1018.4 |
| 20260831143110 | 81 | 169 | 0.9 | 5.2 | 0.00 | 0.00 | 0.00 | 81 | 1018.3 |
| 20260831142610 | 81 | 169 | 0.9 | 5.2 | 0.00 | 0.00 | 0.00 | 81 | 1018.3 |
| 20260831142111 | 81 | 190 | 0.9 | 4.3 | 0.00 | 0.00 | 0.00 | 82 | 1018.2 |
| 20260831141609 | 81 | 172 | 0.9 | 4.3 | 0.00 | 0.00 | 0.00 | 82 | 1018.3 |